TAUSAT-2 (55073 NORAD) Tracking and Keplerian Element Data

This shows tracking and keplerian element data for the satellite.

Feedback or suggestion? Click here.




ElementValue
Catalog55073
NameTAUSAT-2
Epoch Orbit1886
Epoch Day127.14276178
Epoch Year2023
RAAN187.5649
Inclination97.4817
Eccentricity0.0017763
Argument of Perigee130.963
Mean Anonmoly229.3144
Mean Motion15.17261849
Decay Rate0.00013052
L11 55073U 23001BS 23127.14276178 .00013052 00000+0 65575-3 0 9998
L22 55073 97.4817 187.5649 0017763 130.9630 229.3144 15.17261849 18866



Live tracking and technical data element details for TAUSAT-2 (NORAD 55073). TAUSAT-2 can be tracked NOW for your location showing map with azimuth and elevation plus other details from your city location.







IsCatalogInMostPopularTable: catalog: 55073, numindb: -1

Insert: records affected: 1


GetName: 55073 TAUSAT-2

Hit Count: inserted at: Mon, 05 Jun 2023 20:22:25 GMT